Find Starlink 3605

NORAD ID: 51805 Int'l Des: 2022-017 Owner: SPXS Country: US Constellation: starlink operational
LEOCIRCULAR

Live Position

Loading 3D Globe...

About Starlink 3605

Description loading...

Upcoming Passes

Passes for default location (London). Set your location on the main map for personalized predictions.

Altitude History

Loading altitude history...

Two-Line Element Set

1 51805U 22017AP 26104.46133583 .00000214 00000-0 31541-4 0 9992
2 51805 53.2172 168.6137 0001261 86.2792 273.8344 15.08837874229642
Epoch: Apr 14, 2026 • Age: 12 hours

Current Status

Altitude 559.1 km
Velocity 7.58 km/s
Sub-Earth Point -53.08°S, 109.75°W
Launch Date Feb 25, 2022
Age 4.1 years
Type internet

Technical Details

Classification Payload
Mass 297.00 kg
Dry Mass 275.00 kg
Total Mass 297.00 kg
Length 0.20 m
Diameter 2.80 m
Span 9.00 m
Shape Box + pan
Manufacturer SPXS
Bus Type Starlink
Phase Status In Orbit
Owner/State SPXS/US

Most Searched